User: anonymous   Login
Location: Unspecified
(0.0000°N, 0.0000°E)
Time: 11:15:40
(UTC+00:00)
Language:

Vela 4A - Orbit

View from above orbital plane
View from above orbital plane
View from above satellite
View from above satellite

Ground track
Ground track

The orbit data is extracted from the following two-line orbital elements,

1 02765U 67040A   14297.37425845 -.00000886  00000-0  00000+0 0   115
2 02765 006.1722 329.5784 4638336 200.8727 000.8386 00.21490797 37269
Epoch (UTC): 24 October 2014 08:58:55
Eccentricity: 0.4638336
inclination: 6.1722°
perigee height: 56746 km
apogee height: 165962 km
right ascension of ascending node: 329.5784°
argument of perigee: 200.8727°
revolutions per day: 0.21490797
mean anomaly at epoch: 0.8386°
orbit number at epoch: 3726

The dashed part of the orbit path shows where the satellite is in the earth's shadow,  

DLR